   Perigee 2018 Apr 30.910734 +/- 2.43e-5 TT = 21:51:27 (JD 2458239.410734)
Epoch 2018 May  1.0 TT; AMR 0.017227 +/- 0.00291 m2/kg       Gray
M  35.423333 +/- 0.009              (J2000 equator)
n 396.827429548 +/- 9.2e-5          Peri.  353.464076 +/- 0.0021
a 39585.46190 +/- 0.00612           Node    50.996997 +/- 0.0014
e   0.78989824 +/- 1.5e-5           Incl.   30.805489 +/- 0.00045
P1306.34m/0.907d           H 29.5   G  0.15   U  6.5  
q 8316.974848 +/- 0.593    Q 70853.94896 +/- 0.588
45 of 117 observations 2018 Mar. 25-June 30; mean residual 8".194
Residuals in arcseconds: 
160201 Y00( 509-  248-)   170318 Y00( 279- 32.6+)   180411 Y00 4.08+ 4.05-    
160201 Y00( 509-  248-)   170318 Y00( 281- 32.5+)   180411 Y00 4.68+ 4.56-    
160201 Y00( 510-  249-)   170318 Y00( 280- 31.9+)   180411 Y00 3.53+ 3.44-    
160201 Y00( 528-  261-)   170327 Y00( 296- 19.2+)   180421 Y00 11.3+ 7.55-    
160201 Y00( 529-  262-)   170327 Y00( 295- 19.3+)   180421 Y00 11.1+ 7.84-    
160201 Y00( 531-  262-)   170327 Y00( 296- 19.4+)   180421 Y00 10.8+ 7.65-    
160201 Y00( 540-  268-)   170416 Y00( 213- 24.2+)   180426 Y00 12.5+ 6.90-    
160201 Y00( 542-  269-)   170416 Y00( 213- 25.1+)   180426 Y00 11.5+ 6.70-    
160201 Y00( 543-  270-)   170416 Y00( 211- 25.2+)   180426 Y00 15.3+ 9.55-    
160209 Y00( 543-  272-)   170418 Y00( 200- 50.1+)   180502 Y00 1.86+ .945+    
160209 Y00( 542-  272-)   170418 Y00( 200- 50.0+)   180502 Y00 1.74+ 1.35+    
160209 Y00( 539-  270-)   170418 Y00( 201- 50.6+)   180502 Y00 1.92+ 1.26+    
160211 Y00( 525-  254-)   170425 Y00( 258- 7.34+)   180503 Y00 .949- 2.29+    
160211 Y00( 529-  257-)   170425 Y00( 258- 7.37+)   180503 Y00 1.25- 2.40+    
160211 Y00( 528-  256-)   170425 Y00( 257- 7.59+)   180503 Y00 1.87- 2.52+    
160403 Y00( 776-  282-)   170426 Y00( 179- 25.0+)   180504 Y00 .030+ .097+    
160403 Y00( 777-  282-)   170426 Y00( 180- 25.1+)   180504 Y00 .229- .359+    
160403 Y00( 778-  282-)   170426 Y00( 180- 25.8+)   180504 Y00 .902- .938+    
160403 Y00( 802-  291-)   170516 Y00( 123- 22.6+)   180506 Y00 7.48+ 2.87-    
160403 Y00( 806-  293-)   170516 Y00( 124- 22.9+)   180506 Y00 7.18+ 4.27-    
160403 Y00( 808-  293-)   170516 Y00( 124- 23.6+)   180506 Y00 4.34+ 2.38-    
160411 Y00( 557-  241-)   170605 Y00(59.8- 22.9+)   180512 Y00 7.95+ 9.46-    
160411 Y00( 557-  242-)   170605 Y00(60.5- 23.1+)   180512 Y00 9.92+ 10.6-    
160411 Y00( 556-  241-)   170605 Y00(59.7- 23.2+)   180512 Y00 10.6+ 9.12-    
160411 Z22( 562-  248-)   170628 Y00(20.8+ 17.6+)   180524 Y00 18.5+ 13.6-    
160411 Z22( 590-  269-)   170628 Y00(19.9+ 18.1+)   180524 Y00 20.6+ 14.7-    
160411 Z22( 620-  289-)   170628 Y00(18.2+ 18.8+)   180524 Y00 20.4+ 15.2-    
160423 Y00( 788-  270-)   170628 Y00(24.7+ 17.1+)   180602 Y00 4.18+ 2.92-    
160423 Y00( 790-  270-)   170628 Y00(25.4+ 16.8+)   180602 Y00 4.60+ 3.02-    
160423 Y00( 795-  273-)   170628 Y00(19.7+ 19.4+)   180602 Y00 5.28+ 3.72-    
160523 Y00( 945-  285-)   170628 Y00(39.7+ 11.8+)   180602 Y00 3.02+ 2.59-    
160523 Y00( 949-  287-)   170628 Y00(39.2+ 12.2+)   180602 Y00 3.34+ 1.84-    
160523 Y00( 960-  288-)   170628 Y00(37.3+ 13.3+)   180602 Y00 4.44+ 2.80-    
170216 Y00( 384- 24.2+)   180325 Y00 17.6- 9.91+    180611 Y00 3.80+ 3.14-    
170216 Y00( 385- 24.3+)   180325 Y00 17.7- 10.4+    180611 Y00 4.61+ 3.32-    
170216 Y00( 384- 24.2+)   180325 Y00 17.5- 10.8+    180611 Y00 3.59+ 2.63-    
170309 Y00( 329- 44.7+)   180327 Y00 12.2- 4.80+    180630 Y00 8.41- 3.44+    
170309 Y00( 328- 44.6+)   180327 Y00 9.41- 3.76+    180630 Y00 8.05- 3.41+    
170309 Y00( 327- 44.6+)   180327 Y00 9.09- 2.82+    180630 Y00 9.49- 4.91+    

Ephemerides (geocentric):
Date (UTC) HH   RA              Dec         delta   r     elong  mag " sig PA
---- -- -- --  -------------   -----------  ------ ------ -----  --- ---- ---
2018 07 01 00  14 28 16.642   +04 41 35.06   65122 1.0168 112.9 15.1 6.55 132
2018 07 01 01  14 40 44.121   +02 49 25.84   67778 1.0168 116.5 15.1 5.62 133
2018 07 01 02  14 52 21.844   +01 03 57.11   69559 1.0169 119.9 15.1 4.87 134
2018 07 01 03  15 03 31.904   -00 37 37.20   70503 1.0169 123.1 15.0 4.25 134
2018 07 01 04  15 14 32.248   -02 17 34.19   70630 1.0169 126.3 14.9 3.74 134
2018 07 01 05  15 25 39.434   -03 57 59.86   69942 1.0169 129.5 14.8 3.32 134
2018 07 01 06  15 37 10.903   -05 41 03.70   68426 1.0169 132.8 14.7 2.99 133
2018 07 01 07  15 49 27.537   -07 29 14.35   66049 1.0170 136.2 14.5 2.75 131
2018 07 01 08  16 02 57.476   -09 25 40.95   62758 1.0170 140.1 14.3 2.65 128
2018 07 01 09  16 18 23.066   -11 34 48.24   58468 1.0170 144.4 14.0 2.76 124
2018 07 01 10  16 36 55.667   -14 03 22.49   53054 1.0169 149.4 13.7 3.23 119
2018 07 01 11  17 00 52.825   -17 02 49.45   46320 1.0169 155.9 13.2 4.48 114
2018 07 01 12  17 35 34.042   -20 54 26.90   37948 1.0169 164.7 12.5 7.72 110
2018 07 01 13  18 37 49.098   -26 18 23.44   27390 1.0168 176.7 Sha  18.4 104
2018 07 01 14  21 45 12.504   -30 43 23.78   13936 1.0167 138.5 11.1 92.7  83
2018 07 01 15  08 08 20.316   +30 36 12.49   12706 1.0166  20.8 19??  145  84
2018 07 01 16  11 41 00.018   +24 45 28.27   26349 1.0166  67.5 15.1 39.4 113
2018 07 01 17  12 45 12.395   +18 29 10.62   37134 1.0166  83.6 15.0 21.6 121
2018 07 01 18  13 20 07.109   +14 14 05.83   45668 1.0167  93.0 15.1 14.8 125
2018 07 01 19  13 44 01.988   +11 01 50.66   52529 1.0167  99.6 15.1 11.3 127
2018 07 01 20  14 02 29.720   +08 25 26.46   58048 1.0167 104.8 15.2 9.09 129
2018 07 01 21  14 17 50.678   +06 11 13.49   62429 1.0168 109.2 15.2 7.55 131
2018 07 01 22  14 31 16.889   +04 11 23.43   65802 1.0168 113.0 15.2 6.41 132
2018 07 01 23  14 43 30.823   +02 20 59.61   68255 1.0168 116.5 15.1 5.52 133
2018 07 02 00  14 55 00.605   +00 36 35.68   69843 1.0169 119.8 15.1 4.80 134
2018 07 02 01  15 06 07.085   -01 04 26.09   70601 1.0169 123.0 15.0 4.21 134
2018 07 02 02  15 17 07.681   -02 44 18.95   70544 1.0169 126.2 14.9 3.72 134
2018 07 02 03  15 28 18.961   -04 25 08.44   69670 1.0169 129.4 14.8 3.32 134
2018 07 02 04  15 39 58.901   -06 09 06.83   67962 1.0170 132.8 14.7 3.01 133
2018 07 02 05  15 52 29.641   -07 58 49.61   65383 1.0170 136.3 14.5 2.81 131
2018 07 02 06  16 06 21.785   -09 57 38.99   61874 1.0170 140.2 14.2 2.75 127
2018 07 02 07  16 22 22.557   -12 10 23.89   57342 1.0170 144.7 14.0 2.93 123
2018 07 02 08  16 41 53.786   -14 44 36.92   51649 1.0170 150.0 13.6 3.55 118
2018 07 02 09  17 07 39.016   -17 53 18.92   44577 1.0169 156.8 13.1 5.12 114
2018 07 02 10  17 46 19.748   -22 01 11.41   35769 1.0169 166.5 12.3 9.31 109
2018 07 02 11  19 01 21.079   -27 50 44.57   24600 1.0168 173.9 Sha  24.6 102
2018 07 02 12  23 33 10.253   -25 22 21.20   10825 1.0167 115.1 11.2  166  70
2018 07 02 13  09 32 20.167   +30 57 22.27   15971 1.0166  37.9 16?? 96.8  95
2018 07 02 14  12 00 37.947   +23 01 54.34   29038 1.0166  71.5 15.1 33.6 115
2018 07 02 15  12 54 46.360   +17 20 02.83   39243 1.0166  85.4 15.1 19.8 122
2018 07 02 16  13 26 20.103   +13 22 32.59   47358 1.0167  93.9 15.1 14.0 125
2018 07 02 17  13 48 41.397   +10 19 58.70   53890 1.0167 100.1 15.2 10.8 128
2018 07 02 18  14 06 17.534   +07 49 26.05   59136 1.0168 105.1 15.2 8.80 130
2018 07 02 19  14 21 07.343   +05 38 58.37   63279 1.0168 109.3 15.2 7.36 131
2018 07 02 20  14 34 13.970   +03 41 36.34   66437 1.0168 113.1 15.2 6.28 132
2018 07 02 21  14 46 15.690   +01 52 48.61   68690 1.0169 116.5 15.1 5.43 133
2018 07 02 22  14 57 38.504   +00 09 22.48   70088 1.0169 119.8 15.1 4.74 134
2018 07 02 23  15 08 42.206   -01 31 12.57   70660 1.0169 123.0 15.0 4.17 134
2018 07 03 00  15 19 43.817   -03 11 06.74   70418 1.0169 126.2 14.9 3.71 134
2018 07 03 01  15 31 00.019   -04 52 25.78   69357 1.0170 129.4 14.8 3.33 133